Find Starlink 2379

NORAD ID: 47798 Int'l Des: 2021-018 Owner: SPXS Country: US Constellation: starlink operational
LEOCIRCULARSTARLINK_TYPE

Live Position

Loading 3D Globe...

About Starlink 2379

Description loading...

Upcoming Passes

Passes for default location (London). Set your location on the main map for personalized predictions.

Altitude History

Loading altitude history...

Two-Line Element Set

1 47798U 21018M 26122.16670139 .01100650 00000-0 38966-1 0 9999
2 47798 53.1349 350.4528 0001292 79.3714 282.3305 15.26093425 5784
Epoch: May 2, 2026 • Age: 9 hours

Current Status

Altitude 488.0 km
Velocity 7.62 km/s
Sub-Earth Point -8.66°S, 124.62°E
Launch Date Mar 11, 2021
Age 5.1 years
Type internet

Technical Details

Classification Payload
Mass 260.00 kg
Dry Mass 248.00 kg
Total Mass 260.00 kg
Length 0.20 m
Diameter 2.80 m
Span 9.00 m
Shape Box + pan
Manufacturer SPXS
Bus Type Starlink
Phase Status In Orbit
Owner/State SPXS/US

Most Searched